Weather Roundup
Issued by NWS Chicago, IL

Home | Current Version | Previous Version | Text Only | Print | Product List | Glossary On
Versions: 1 2 3 4 5 6 7 8 9 10 11 12 13 14 15 16 17 18 19 20 21 22 23 24 25 26 27 28 29 30 31 32 33 34 35 36 37 38 39 40 41 42 43 44 45 46 47 48 49 50
000
NZUS59 KLOT 282109
HRRLOT

CHICAGO AREA WEATHER ROUNDUP
NATIONAL WEATHER SERVICE CHICAGO/ROMEOVILLE IL
400 PM CDT SUN MAY 28 2017

NOTE: "FAIR" INDICATES FEW OR NO CLOUDS BELOW 12,000 FEET WITH NO
SIGNIFICANT WEATHER AND/OR OBSTRUCTIONS TO VISIBILITY.

* THESE STATIONS ARE NOT UNDER NWS QUALITY CONTROL. THEY ALSO MAY NOT
  REPORT WEATHER SUCH AS PRECIPITATION OR FOG.

ILZ005-006-012>014-019>023-282200-
NORTHEAST ILLINOIS

CITY           SKY/WX    TMP DP  RH WIND       PRES   REMARKS
OHARE          MOSUNNY   77  53  43 NW13G22   29.72S
MIDWAY         MOSUNNY   71  60  68 E6        29.72F
AURORA         SUNNY     76  53  44 W20       29.75S
LANSING*       MOSUNNY   70  61  73 N6        29.73S
JOLIET*        SUNNY     77  54  45 W7        29.74S
WAUKEGAN       MOSUNNY   74  54  49 NW13G20   29.72F
DUPAGE AIRPORT SUNNY     75  54  47 NW17      29.73F
WHEELING       SUNNY     74  54  49 NW9       29.73F
KANKAKEE*      MOSUNNY   78  56  46 NW12G20   29.74R
MORRIS*        SUNNY     76  53  44 NW18      29.73S
LEWIS AIRPORT* SUNNY     76  57  52 W15       29.74S
NORTHERLY ISL    N/A     59  53  80 NE3         N/A
$$

WIZ051-052-058>065-066-070>072-282200-
SOUTHEAST WISCONSIN

CITY           SKY/WX    TMP DP  RH WIND       PRES   REMARKS
MILWAUKEE      MOSUNNY   75  53  46 W13       29.71F
KENOSHA*       MOSUNNY   73  55  53 W13G18    29.72F
RACINE*        SUNNY     69  57  65 CALM      29.73F
WAUKESHA       MOSUNNY   70  54  56 W16       29.72F
WEST BEND      SUNNY     72  54  53 W12G17    29.69F
$$

INZ001>003-010>013-019-020-282200-
NORTHWEST INDIANA

CITY           SKY/WX    TMP DP  RH WIND       PRES   REMARKS
GARY*          MOSUNNY   66  55  68 CALM      29.74F
MICHIGAN CITY* NOT AVBL
RENSSELAER*    NOT AVBL
VALPARAISO     MOSUNNY   75  61  61 NW10      29.72S
$$

LMZ740>746-282200-
SOUTHERN LAKE MICHIGAN

STATION/POSITION TIME  SKY/WX   TEMP WIND        PRES    VSBY
                                AIR  DIR/SP/G
                 (UTC)          (F)  (DEG/KT/KT) (MB)    (MI)
HARRISON CRIB    2040            56  340/  3/  4   N/A
BURNHAM HARBOR   2100            59   CALM  /  6   N/A
CALUMET HARBOR   2042            58   50/  6/  6 1006.5F
BURNS HARBOR     2040            57  320/  4/  8 1007.5R
MICHIGAN CITY    2040            59  320/ 11/ 12   N/A
$$

ABBREVIATIONS USED IN REMARKS
   TC - TEMPERATURE IN CELSIUS
  WCI - WIND CHILL INDEX
   HX - HEAT INDEX
  VSB - VISIBILITY
$$




USA.gov is the U.S. government's official web portal to all federal, state and local government web resources and services.